PRAETORIAN SDA_609

Last updated on Thu Sep 10 2026 00:03:39 GMT+0000 (Coordinated Universal Time)

1 65572U 25203H 26252.57931020 .00000185 00000+0 15490-3 0 9996 2 65572 81.3025 292.6565 0006314 332.6436 27.4388 13.84215438 50378
UTC large
Height (km)
Speed (km/s)
/
Latitude / Longitude
Inclination (degrees)
Orbital Period (minutes)
Azimuth
Elevation
Range (km)
Doppler Factor

Next 0 passes for location: London (51.5072 / 0.1276)

No passes found over London.
PRAETORIAN SDA_609